Find Kosmos-800

NORAD ID: 8645 Int'l Des: 1976-011 Owner: VMF Country: SU operational
LEOCIRCULARPOLAR

リアルタイム位置

3D地球を読み込み中...

Kosmos-800について

説明を読み込み中...

次回通過

Passes for default location (London). Set your location on the main map for personalized predictions.

高度履歴

Loading altitude history...

軌道要素

1 08645U 76011A 26107.18108601 .00000057 00000-0 45186-4 0 9999
2 08645 82.9740 161.4138 0022199 147.0928 267.9524 13.72197493513025
Epoch: Apr 17, 2026 • Age: 10 hours

現在のステータス

高度 1030.6 km
速度 7.33 km/s
衛星直下点 -79.99°S, 58.74°E
タイプ other

Most Searched